Hourly Weather Murakaevo

Today, 20 September, Monday

Time Temperature Precipitation Wind Pressure Humidity
00:00 -3°C° 0 mm 2 mps 724 mmHg 86%
01:00 -1°C° 0 mm 1 mps 724 mmHg 88%
02:00 -1°C° 0 mm 1 mps 725 mmHg 88%
03:00 -1°C° 0 mm 1 mps 725 mmHg 89%
04:00 -1°C° 0 mm 1 mps 725 mmHg 89%
05:00 -1°C° 0 mm 1 mps 726 mmHg 87%
06:00 -1°C° 0 mm 1 mps 726 mmHg 85%
07:00 0°C° 0 mm 1 mps 726 mmHg 83%
08:00 +1°C° 0 mm 2 mps 726 mmHg 73%
09:00 +3°C° 0 mm 2 mps 727 mmHg 63%
10:00 +4°C° 0 mm 3 mps 727 mmHg 53%
11:00 +6°C° 0 mm 2 mps 727 mmHg 48%
12:00 +7°C° 0 mm 2 mps 727 mmHg 44%
13:00 +9°C° 0 mm 2 mps 727 mmHg 40%
14:00 +9°C° 0 mm 2 mps 727 mmHg 40%
15:00 +9°C° 0 mm 2 mps 727 mmHg 40%
16:00 +9°C° 0 mm 2 mps 727 mmHg 40%
17:00 +7°C° 0 mm 2 mps 727 mmHg 50%
18:00 +4°C° 0 mm 2 mps 728 mmHg 60%
19:00 +2°C° 0 mm 2 mps 728 mmHg 70%
20:00 +1°C° 0 mm 2 mps 728 mmHg 74%
21:00 +1°C° 0 mm 2 mps 729 mmHg 79%
22:00 +1°C° 0 mm 1 mps 729 mmHg 83%
23:00 +1°C° 0 mm 1 mps 729 mmHg 85%

Tomorrow, 21 September, Tuesday

Time Temperature Precipitation Wind Pressure Humidity
00:00 0°C° 0 mm 1 mps 729 mmHg 86%
01:00 0°C° 0 mm 1 mps 730 mmHg 88%
02:00 0°C° 0 mm 1 mps 730 mmHg 88%
03:00 0°C° 0 mm 1 mps 730 mmHg 88%
04:00 0°C° 0 mm 1 mps 730 mmHg 88%
05:00 0°C° 0 mm 1 mps 730 mmHg 85%
06:00 0°C° 0 mm 0 mps 730 mmHg 81%
07:00 +1°C° 0 mm 0 mps 730 mmHg 78%
08:00 +3°C° 0 mm 1 mps 730 mmHg 70%
09:00 +5°C° 0 mm 1 mps 730 mmHg 62%
10:00 +6°C° 0 mm 1 mps 730 mmHg 54%
11:00 +6°C° 0 mm 2 mps 729 mmHg 51%
12:00 +8°C° 0 mm 2 mps 729 mmHg 47%
13:00 +9°C° 0 mm 2 mps 729 mmHg 43%
14:00 +9°C° 0 mm 2 mps 728 mmHg 43%
15:00 +9°C° 0 mm 2 mps 728 mmHg 42%
16:00 +9°C° 0 mm 2 mps 728 mmHg 42%
17:00 +7°C° 0 mm 2 mps 728 mmHg 48%
18:00 +6°C° 0 mm 2 mps 727 mmHg 55%
19:00 +4°C° 0 mm 2 mps 727 mmHg 61%
20:00 +4°C° 0 mm 1 mps 727 mmHg 64%
21:00 +4°C° 0 mm 1 mps 727 mmHg 67%
22:00 +3°C° 0 mm 1 mps 727 mmHg 70%
23:00 +3°C° 0 mm 1 mps 727 mmHg 73%

Day after tomorrow, 22 September, Wednesday

Time Temperature Precipitation Wind Pressure Humidity
00:00 +2°C° 0 mm 1 mps 727 mmHg 75%
01:00 +2°C° 0 mm 1 mps 727 mmHg 77%
02:00 +2°C° 0 mm 1 mps 726 mmHg 78%
03:00 +1°C° 0 mm 1 mps 726 mmHg 78%
04:00 +1°C° 0 mm 1 mps 726 mmHg 79%
05:00 +2°C° 0 mm 1 mps 726 mmHg 76%
06:00 +2°C° 0 mm 1 mps 726 mmHg 72%
07:00 +3°C° 0 mm 1 mps 726 mmHg 69%
08:00 +5°C° 0 mm 0 mps 726 mmHg 60%
09:00 +8°C° 0 mm 0 mps 726 mmHg 51%
10:00 +11°C° 0 mm 0 mps 726 mmHg 42%
11:00 +12°C° 0 mm 0 mps 726 mmHg 39%
12:00 +14°C° 0 mm 1 mps 726 mmHg 36%
13:00 +15°C° 0 mm 1 mps 725 mmHg 34%
14:00 +15°C° 0 mm 1 mps 725 mmHg 34%
15:00 +15°C° 0 mm 1 mps 725 mmHg 35%
16:00 +15°C° 0 mm 1 mps 725 mmHg 35%
17:00 +13°C° 0 mm 1 mps 726 mmHg 44%
18:00 +10°C° 0 mm 1 mps 726 mmHg 53%
19:00 +8°C° 0 mm 1 mps 726 mmHg 62%
20:00 +7°C° 0 mm 1 mps 726 mmHg 64%
21:00 +7°C° 0 mm 1 mps 727 mmHg 67%
22:00 +6°C° 0 mm 1 mps 727 mmHg 69%
23:00 +4°C° 0 mm 2 mps 727 mmHg 69%

23 September, Thursday

Time Temperature Precipitation Wind Pressure Humidity
00:00 +4°C° 0 mm 2 mps 727 mmHg 70%
01:00 +3°C° 0 mm 2 mps 727 mmHg 70%
02:00 +3°C° 0 mm 2 mps 728 mmHg 72%
03:00 +3°C° 0 mm 2 mps 728 mmHg 73%
04:00 +2°C° 0 mm 2 mps 728 mmHg 75%
05:00 +3°C° 0 mm 1 mps 729 mmHg 73%
06:00 +4°C° 0 mm 1 mps 729 mmHg 72%
07:00 +4°C° 0 mm 1 mps 729 mmHg 70%
08:00 +6°C° 0 mm 1 mps 730 mmHg 62%
09:00 +7°C° 0 mm 2 mps 730 mmHg 55%
10:00 +9°C° 0 mm 2 mps 730 mmHg 47%
11:00 +10°C° 0 mm 2 mps 730 mmHg 44%
12:00 +12°C° 0 mm 2 mps 730 mmHg 42%
13:00 +13°C° 0 mm 3 mps 730 mmHg 40%
14:00 +13°C° 0 mm 3 mps 730 mmHg 40%
15:00 +13°C° 0 mm 3 mps 729 mmHg 40%
16:00 +13°C° 0 mm 3 mps 729 mmHg 40%
17:00 +12°C° 0 mm 2 mps 730 mmHg 47%
18:00 +9°C° 0 mm 2 mps 730 mmHg 54%
19:00 +8°C° 0 mm 1 mps 730 mmHg 60%
20:00 +7°C° 0 mm 1 mps 730 mmHg 62%
21:00 +7°C° 0 mm 1 mps 730 mmHg 64%
22:00 +6°C° 0 mm 1 mps 730 mmHg 65%
23:00 +6°C° 0 mm 1 mps 730 mmHg 67%

24 September, Friday

Time Temperature Precipitation Wind Pressure Humidity
00:00 +5°C° 0 mm 0 mps 730 mmHg 69%
01:00 +4°C° 0 mm 0 mps 730 mmHg 70%
02:00 +4°C° 0 mm 0 mps 730 mmHg 71%
03:00 +5°C° 0 mm 1 mps 730 mmHg 71%
04:00 +5°C° 0 mm 1 mps 730 mmHg 71%
05:00 +6°C° 0 mm 1 mps 730 mmHg 70%
06:00 +6°C° 0 mm 1 mps 731 mmHg 68%
07:00 +7°C° 0 mm 1 mps 731 mmHg 67%
08:00 +8°C° 0 mm 1 mps 730 mmHg 61%
09:00 +9°C° 0 mm 2 mps 730 mmHg 55%
10:00 +10°C° 0 mm 3 mps 730 mmHg 49%
11:00 +11°C° 0 mm 4 mps 730 mmHg 46%
12:00 +12°C° 0 mm 4 mps 730 mmHg 43%
13:00 +13°C° 0 mm 5 mps 729 mmHg 40%
14:00 +13°C° 0 mm 5 mps 729 mmHg 38%
15:00 +13°C° 0 mm 5 mps 728 mmHg 37%
16:00 +13°C° 0 mm 5 mps 728 mmHg 36%
17:00 +12°C° 0 mm 4 mps 728 mmHg 37%
18:00 +10°C° 0 mm 4 mps 728 mmHg 38%
19:00 +9°C° 0 mm 3 mps 727 mmHg 39%
20:00 +8°C° 0 mm 3 mps 727 mmHg 41%
21:00 +7°C° 0 mm 2 mps 727 mmHg 43%
22:00 +6°C° 0 mm 2 mps 727 mmHg 45%
23:00 +7°C° 0 mm 1 mps 727 mmHg 46%

25 September, Saturday

Time Temperature Precipitation Wind Pressure Humidity
00:00 +6°C° 0 mm 1 mps 727 mmHg 47%
01:00 +6°C° 0 mm 1 mps 726 mmHg 48%
02:00 +5°C° 0 mm 1 mps 726 mmHg 49%
03:00 +5°C° 0 mm 1 mps 726 mmHg 50%
04:00 +4°C° 0 mm 1 mps 725 mmHg 51%
05:00 +5°C° 0 mm 1 mps 725 mmHg 50%
06:00 +5°C° 0 mm 1 mps 725 mmHg 48%
07:00 +6°C° 0 mm 1 mps 724 mmHg 47%
08:00 +7°C° 0 mm 2 mps 724 mmHg 42%
09:00 +10°C° 0 mm 3 mps 723 mmHg 36%
10:00 +12°C° 0 mm 4 mps 723 mmHg 31%
11:00 +14°C° 0 mm 5 mps 722 mmHg 28%
12:00 +15°C° 0 mm 7 mps 721 mmHg 25%
13:00 +17°C° 0 mm 8 mps 721 mmHg 22%
14:00 +17°C° 0.1 mm 7 mps 720 mmHg 25%
15:00 +16°C° 0.1 mm 6 mps 720 mmHg 27%
16:00 +16°C° 0.1 mm 5 mps 719 mmHg 30%
17:00 +14°C° 0.2 mm 4 mps 719 mmHg 40%
18:00 +14°C° 0.2 mm 2 mps 719 mmHg 50%
19:00 +12°C° 0.2 mm 1 mps 719 mmHg 59%
20:00 +12°C° 0 mm 1 mps 718 mmHg 62%
21:00 +11°C° 0 mm 1 mps 718 mmHg 65%
22:00 +10°C° 0 mm 2 mps 718 mmHg 68%
23:00 +9°C° 0 mm 2 mps 718 mmHg 73%
Show more

We Need Your Consent

Meteoprog and our Service Providers may store and access personal data such as cookies, device identifiers or other similar technologies on your device and process such data to personalise content and ads, as well as provide social media features and to analyse the traffic.

  • Store and/or access information on your device

    Cookies, device identifiers or other information can be stored or accessed on your device for the purposes indicated above.

  • Personalised ads and content, ad and content measurement, audience insights, and products development

    Ads and content can be personalised based on a profile. More data can be added to better personalise ads and content. Ad and content performance can be measured. Insights about the audience who saw the ads and content can be derived. Such data can be used to develop or improve user’s experience, systems and software.

By clicking ‘I Agree’ you will allow the use of indicated cookies, device identifiers, web beacons or other similar technologies. Your settings can be changed in the browser on your device.

For certain purposes, legitimate interests may be relied on, rather than consent. You can read more about this in our Privacy and Cookie Policy.